FW3675 Weather Reports


Display with metric or nautical units.
time (UTC)temp
F
wind
direction
speed
MPH
gust
MPH
rain 1hr
in
rain 24hr
in
rain mn
in
humidity
%
barometer
mb
20260906214548 89 49 6.0 10.0 0.00 0.00 0.00 35 1002.5
20260906213040 89 44 4.0 9.0 0.00 0.00 0.00 36 1002.6
20260906211536 88 9 5.0 11.0 0.00 0.00 0.00 36 1003.3
20260906210037 86 30 4.0 9.0 0.00 0.00 0.00 39 1003.6
20260906204533 85 18 4.0 8.0 0.00 0.00 0.00 40 1003.6
20260906203033 85 15 3.0 7.0 0.00 0.00 0.00 40 1003.8
20260906201543 88 25 5.0 11.0 0.00 0.00 0.00 36 1003.8
20260906200029 88 8 4.0 9.0 0.00 0.00 0.00 37 1004.0
20260906194537 88 34 4.0 8.0 0.00 0.00 0.00 38 1004.1
20260906193023 87 21 3.0 8.0 0.00 0.00 0.00 39 1004.2
20260906191520 86 4 1.0 8.0 0.00 0.00 0.00 42 1004.4
20260906190016 85 34 4.0 10.0 0.00 0.00 0.00 46 1004.4
20260906184513 84 51 4.0 11.0 0.00 0.00 0.00 47 1004.8
20260906183014 84 353 4.0 10.0 0.00 0.00 0.00 49 1005.2
20260906181516 82 42 2.0 6.0 0.00 0.00 0.00 52 1005.3
20260906180002 82 72 2.0 7.0 0.00 0.00 0.00 54 1005.5
20260906174605 82 61 2.0 6.0 0.00 0.00 0.00 55 1006.0
20260906173101 80 360 1.0 7.0 0.00 0.00 0.00 57 1006.4
20260906171552 80 100 2.0 7.0 0.00 0.00 0.00 56 1006.4
20260906170047 79 77 2.0 6.0 0.00 0.00 0.00 58 1006.8
20260906164546 77 98 1.0 6.0 0.00 0.00 0.00 62 1006.8
20260906163052 75 340 2.0 5.0 0.00 0.00 0.00 65 1006.7
20260906161538 74 344 3.0 7.0 0.00 0.00 0.00 64 1006.9
20260906160036 74 326 3.0 6.0 0.00 0.00 0.00 66 1006.8
20260906154531 73 335 1.0 6.0 0.00 0.00 0.00 67 1006.9
20260906153031 72 63 1.0 5.0 0.00 0.00 0.00 70 1006.9
20260906151523 70 354 2.0 6.0 0.00 0.00 0.00 73 1007.1
20260906150025 68 49 1.0 5.0 0.00 0.00 0.00 77 1007.2
20260906144519 66 25 1.0 2.0 0.00 0.00 0.00 78 1007.2
20260906143018 67 30 2.0 6.0 0.00 0.00 0.00 77 1007.3
20260906141516 66 35 3.0 8.0 0.00 0.00 0.00 79 1007.2
20260906140015 66 13 4.0 8.0 0.00 0.00 0.00 78 1007.3
20260906134511 64 6 2.0 5.0 0.00 0.00 0.00 80 1007.2
20260906133009 63 319 1.0 4.0 0.00 0.00 0.00 81 1007.2
20260906131509 61 314 1.0 2.0 0.00 0.00 0.00 84 1007.1
20260906130007 60 269 0.0 2.0 0.00 0.00 0.00 84 1007.2
20260906124503 59 360 0.0 2.0 0.00 0.00 0.00 84 1007.1
20260906123001 59 89 0.0 2.0 0.00 0.00 0.00 83 1007.0
20260906121500 60 360 0.0 2.0 0.00 0.00 0.00 82 1006.9
20260906120059 60 2 0.0 2.0 0.00 0.00 0.00 79 1006.9
20260906114614 60 39 1.0 2.0 0.00 0.00 0.00 78 1006.8
20260906113107 60 25 0.0 2.0 0.00 0.00 0.00 76 1007.0
20260906111554 60 324 0.0 2.0 0.00 0.00 0.00 74 1006.6
20260906110053 61 295 0.0 2.0 0.00 0.00 0.00 76 1006.7
20260906104551 61 331 1.0 3.0 0.00 0.00 0.00 76 1006.7
20260906103051 61 314 0.0 3.0 0.00 0.00 0.00 74 1006.7
20260906101550 61 2 0.0 2.0 0.00 0.00 0.00 73 1006.6
20260906100045 62 15 0.0 2.0 0.00 0.00 0.00 71 1006.6
20260906094549 63 2 1.0 2.0 0.00 0.00 0.00 70 1006.6
20260906093041 63 2 0.0 2.0 0.00 0.00 0.00 70 1006.7
20260906091543 63 286 0.0 2.0 0.00 0.00 0.00 68 1006.4
20260906090037 64 314 1.0 3.0 0.00 0.00 0.00 64 1006.0
20260906084536 65 9 1.0 3.0 0.00 0.00 0.00 62 1005.9
20260906083032 65 353 3.0 5.0 0.00 0.00 0.00 61 1005.8
20260906081538 66 37 1.0 4.0 0.00 0.00 0.00 57 1005.9
20260906080028 67 41 1.0 4.0 0.00 0.00 0.00 55 1006.1
20260906074527 67 35 3.0 6.0 0.00 0.00 0.00 54 1005.7
20260906073027 66 25 2.0 4.0 0.00 0.00 0.00 54 1005.9
20260906071523 67 340 0.0 2.0 0.00 0.00 0.00 54 1005.9
20260906070021 69 46 2.0 4.0 0.00 0.00 0.00 53 1005.8
20260906064525 70 360 1.0 3.0 0.00 0.00 0.00 52 1006.1
20260906063018 71 284 1.0 3.0 0.00 0.00 0.00 49 1006.0
20260906061517 71 9 2.0 3.0 0.00 0.00 0.00 48 1005.8
20260906060014 70 23 2.0 5.0 0.00 0.00 0.00 49 1005.5
20260906054512 70 15 0.0 2.0 0.00 0.00 0.00 50 1006.2
20260906053009 70 2 0.0 5.0 0.00 0.00 0.00 51 1006.3
20260906051506 69 360 4.0 6.0 0.00 0.00 0.00 54 1006.8
20260906050010 71 28 0.0 2.0 0.00 0.00 0.00 47 1006.0
20260906044502 72 60 1.0 2.0 0.00 0.00 0.00 45 1006.0
20260906043003 72 309 3.0 5.0 0.00 0.00 0.00 46 1006.0
20260906041601 71 46 0.0 2.0 0.00 0.00 0.00 47 1005.6
20260906040059 71 269 1.0 2.0 0.00 0.00 0.00 47 1005.2
20260906034602 71 35 1.0 2.0 0.00 0.00 0.00 47 1004.8
20260906033059 72 152 1.0 5.0 0.00 0.00 0.00 45 1004.9
20260906031624 72 13 1.0 4.0 0.00 0.01 0.00 45 1004.7
20260906030058 73 32 2.0 5.0 0.00 0.01 0.00 43 1004.4
20260906024600 77 28 1.0 2.0 0.00 0.01 0.00 38 1004.0
20260906023110 78 44 2.0 5.0 0.00 0.01 0.00 37 1003.9
20260906021557 80 321 2.0 6.0 0.00 0.01 0.00 35 1003.8
20260906020059 81 360 1.0 9.0 0.00 0.01 0.00 34 1004.0
20260906014555 81 328 4.0 10.0 0.00 0.01 0.00 33 1003.7
20260906013055 81 323 5.0 11.0 0.00 0.01 0.00 33 1003.4
20260906011601 83 2 2.0 8.0 0.00 0.01 0.00 31 1003.5
20260906010054 85 344 4.0 9.0 0.00 0.01 0.00 29 1003.3
20260906004559 86 302 3.0 13.0 0.00 0.01 0.00 28 1003.4
20260906003054 88 15 3.0 9.0 0.00 0.01 0.00 27 1003.4
20260906001553 89 331 4.0 10.0 0.00 0.01 0.00 26 1003.3
20260906000059 89 20 5.0 11.0 0.00 0.01 0.00 26 1003.2
20260905234554 89 18 1.0 5.0 0.00 0.01 0.00 25 1003.1
20260905233056 90 2 2.0 5.0 0.00 0.01 0.00 24 1002.9
20260905231551 90 49 1.0 5.0 0.00 0.01 0.00 25 1002.9
20260905230048 91 16 2.0 6.0 0.00 0.01 0.00 23 1002.8
20260905224548 92 46 3.0 8.0 0.00 0.01 0.00 22 1002.8
20260905223047 93 63 3.0 7.0 0.00 0.01 0.00 23 1002.9
20260905221600 95 37 2.0 8.0 0.00 0.01 0.00 21 1002.9
20260905220045 95 54 3.0 9.0 0.00 0.01 0.00 22 1002.7